sat.trackr.live / text

‹ back to catalog

GLOBAL-12

NORAD 49772 · 2021-115BA

PAYLOAD ACTIVE UNKNOWN

§ Identity

Operator
Country
US
Launch date
2021-12-02
Launch site
AFETR
Launch vehicle
Mass (kg)
RCS (m²)

External: N2YO · Heavens-Above · Gunter

§ Orbital elements

Epoch: 2026-09-19T20:33:16.566336Z

Period
92.35 min
Inclination
53.1943°
Eccentricity
0.0003448
Mean motion
15.59242777 rev/d
Perigee alt
387.5 km
Apogee alt
392.2 km
Semi-major
6,768.0 km
B*
3.4362e-4
RAAN
307.4470°
Arg perigee
19.4772°
Mean anomaly
340.6373°
Rev number
27,064

§ Raw data

GLOBAL-121 49772U 21115BA  26262.85644174  .00027065  00000+0  34362-3 0  99962 49772  53.1943 307.4470 0003448  19.4772 340.6373 15.59242777270644

JSON: /api/v1/satellites/49772 · /tle

For live sub-satellite position, see the globe view (requires WebGL).

§ Visibility from observer

Set your observer location to see the next 7 days of passes ≥ 10°. The values pass through the URL so the page stays shareable.

No JS? Fill the form by hand. The geolocation button needs JavaScript.

§ Radio — SatNOGS DB

ModeDescriptionDownlinkUplink
GMSK UHF Unknown 401.435 MHz

1 transmitter · refreshed weekly from db.satnogs.org